Regional Weather Roundup
Issued by NWS

Home | Current Version | Previous Version | Graphics & Text | Print | Product List | Glossary On
Versions: 1 2 3 4 5 6 7 8 9 10 11 12 13 14 15 16 17 18 19 20 21 22 23 24 25 26 27 28 29 30 31 32 33 34 35 36 37 38 39 40 41 42 43 44 45 46 47 48 49 50
000
ASUS43 KLMK 202210
RWRKY
KENTUCKY REGIONAL WEATHER ROUNDUP
NATIONAL WEATHER SERVICE LOUISVILLE KY
600 PM EDT WED AUG 20 2014

NOTE "FAIR" INDICATES FEW OR NO CLOUDS BELOW 12,000 FEET
WITH NO SIGNIFICANT WEATHER AND/OR OBSTRUCTIONS TO VISIBILITY.

KYZ001>023-026-027-061>063-070>075-202300-
WESTERN AND SOUTH CENTRAL KENTUCKY

CITY           SKY/WX    TMP DP  RH WIND       PRES   REMARKS
PADUCAH        MOSUNNY   90  79  70 CALM      29.94S HX 106
HENDERSON      PTSUNNY   84  70  61 E5        29.96S
OWENSBORO      CLOUDY    86  64  47 NE7       29.98S
HOPKINSVILLE   TSTM      77  66  69 SW32G63   29.96F VSB 1/4
BOWLING GREEN  TSTM      73  68  84 SE14      29.98F
GLASGOW        TSTM      78  67  69 CALM      30.00R
$$

KYZ024-025-028>034-038-045-046-053-202300-
NORTH CENTRAL KENTUCKY

CITY           SKY/WX    TMP DP  RH WIND       PRES   REMARKS
LOUISVILLE/SDF CLOUDY    83  68  60 CALM      29.96S
LOUISVILLE/LOU CLOUDY    79  69  71 CALM      29.97S
FORT KNOX      CLOUDY    80  73  79 W3        29.97S
$$

KYZ035>037-039>044-047>052-055>060-089>105-202300-
NORTHEAST KENTUCKY

CITY           SKY/WX    TMP DP  RH WIND       PRES   REMARKS
LEXINGTON      NOT AVBL
COVINGTON      CLOUDY    75  69  81 SW5       29.96F
FRANKFORT      CLOUDY    73  69  87 NE6       29.96F
$$

KYZ054-064>069-076>088-106>120-202300-
SOUTHEAST KENTUCKY

CITY           SKY/WX    TMP DP  RH WIND       PRES   REMARKS
JACKSON        PTSUNNY   82  69  64 N3        30.00S
LONDON         PTSUNNY   78  65  63 E7        30.02R
SOMERSET       CLOUDY    75  63  64 N23G38    30.04R
MIDDLESBORO    CLOUDY    76  69  80 NE6       30.03F
MONTICELLO     HAZE      74  69  84 NE14G41   30.02R THUNDER VSB<1/4
$$




USA.gov is the U.S. government's official web portal to all federal, state and local government web resources and services.